This is the latest recevied weather packets stored in our database for station/object N7TUG-8. If no packets are shown the sender has not sent any weather packets the latest 10 day(s).
| Time | Temp. | Humidity | Pressure | Rain* | Wind** | Luminosity | Snow |
|---|---|---|---|---|---|---|---|
| 1777470916 | 11.11° C | 80% | 1025.2 hPa | 0 mm | 0 m/s | - | - |
| 1777470157 | 8.89° C | 83% | 1025.2 hPa | 0 mm | 0.89 m/s, 325° | - | - |
| 1777470041 | 8.89° C | 83% | 1025.2 hPa | 0 mm | 0.89 m/s, 325° | - | - |
| 1777469246 | 8.33° C | 85% | 1025 hPa | 0 mm | 0.45 m/s, 4° | - | - |
| 1777468625 | 7.78° C | 86% | 1024.9 hPa | 0 mm | 0.45 m/s, 356° | - | - |
| 1777468461 | 7.78° C | 86% | 1025 hPa | 0 mm | 0.45 m/s, 340° | - | - |
| 1777467621 | 8.33° C | 86% | 1024.9 hPa | 0 mm | 0.89 m/s, 324° | - | - |
| 1777467022 | 8.33° C | 86% | 1024.8 hPa | 0 mm | 0.45 m/s, 332° | - | - |
| 1777466716 | 7.78° C | 87% | 1024.7 hPa | 0 mm | 0.45 m/s, 354° | - | - |
| 1777466282 | 8.33° C | 85% | 1024.8 hPa | 0 mm | 0.89 m/s, 337° | - | - |
| 1777465811 | 8.89° C | 85% | 1024.6 hPa | 0 mm | 0.89 m/s, 320° | - | - |
| 1777465041 | 8.89° C | 85% | 1024.6 hPa | 0 mm | 0.45 m/s, 2° | - | - |
| 1777464732 | 9.44° C | 84% | 1024.6 hPa | 0 mm | 0.45 m/s, 312° | - | - |
| 1777464161 | 10° C | 84% | 1024.6 hPa | 0 mm | 0.45 m/s, 237° | - | - |
| 1777463837 | 10° C | 84% | 1024.7 hPa | 0 mm | 0.45 m/s, 199° | - | - |
| 1777463226 | 10° C | 85% | 1024.6 hPa | 0 mm | 0.45 m/s, 216° | - | - |
| 1777462301 | 10° C | 85% | 1024.6 hPa | 0 mm | 0.45 m/s, 281° | - | - |
| 1777461376 | 10° C | 85% | 1024.5 hPa | 0 mm | 0.45 m/s, 297° | - | - |
| 1777461337 | 10° C | 85% | 1024.5 hPa | 0 mm | 0.45 m/s, 297° | - | - |
| 1777460506 | 10° C | 85% | 1024.6 hPa | 0 mm | 0.45 m/s, 285° | - | - |
| 1777459747 | 10° C | 84% | 1024.6 hPa | 0 mm | 0.45 m/s, 330° | - | - |
| 1777459611 | 10° C | 84% | 1024.6 hPa | 0 mm | 0.45 m/s, 330° | - | - |
| 1777458997 | 11.11° C | 83% | 1024.5 hPa | 0 mm | 0.45 m/s, 236° | - | - |
| 1777458731 | 11.11° C | 83% | 1024.5 hPa | 0 mm | 0.45 m/s, 230° | - | - |
| 1777457921 | 11.11° C | 81% | 1024.4 hPa | 0 mm | 0.45 m/s, 241° | - | - |
* Rain latest hour (hover to see other rain measurements)
** Current wind speed in m/s (hover to see current wind gust speed)